DL1MMS-10 Weather Reports


time (UTC)temp
F
wind
direction
speed
knots
gust
knots
rain 1hr
in
rain 24hr
in
rain mn
in
humidity
%
barometer
mb
20260505183816 58 0 0.0 0.0 0.00 0.00 0.00 68 1009.6
20260505183316 59 0 0.0 0.0 0.00 0.00 0.00 66 1009.7
20260505182816 59 0 0.0 0.0 0.00 0.00 0.00 65 1009.4
20260505182315 60 0 0.0 0.0 0.00 0.00 0.00 64 1009.2
20260505181815 60 0 0.0 0.0 0.00 0.00 0.00 63 1009.0
20260505181315 60 0 0.0 0.0 0.00 0.00 0.00 61 1008.9
20260505180814 61 0 0.0 0.0 0.00 0.00 0.00 61 1008.9
20260505180314 -22 0 0.0 0.0 0.00 0.00 0.00 60 1008.8
20260505175814 62 0 0.0 0.0 0.00 0.00 0.00 60 1008.8
20260505175314 62 0 0.0 0.0 0.00 0.00 0.00 59 1008.8
20260505174813 62 0 0.0 0.0 0.00 0.00 0.00 59 1008.8
20260505174313 62 0 0.0 0.0 0.00 0.00 0.00 59 1008.8
20260505173813 62 0 0.0 0.0 0.00 0.00 0.00 59 1008.6
20260505173312 62 0 0.0 0.0 0.00 0.00 0.00 59 1008.5
20260505172813 63 0 0.0 0.0 0.00 0.00 0.00 58 1008.4
20260505172312 63 0 0.0 0.0 0.00 0.00 0.00 57 1008.5
20260505171812 64 0 0.0 0.0 0.00 0.00 0.00 55 1008.5
20260505171311 65 0 0.0 0.0 0.00 0.00 0.00 54 1008.4
20260505170811 66 0 0.0 0.0 0.00 0.00 0.00 52 1008.5
20260505170311 67 0 0.0 0.0 0.00 0.00 0.00 50 1008.4
20260505165811 68 0 0.0 0.0 0.00 0.00 0.00 48 1008.3
20260505165310 70 0 0.0 0.0 0.00 0.00 0.00 47 1008.4
20260505164810 71 0 0.0 0.0 0.00 0.00 0.00 46 1008.3
20260505164310 71 0 0.0 0.0 0.00 0.00 0.00 47 1008.6
20260505163809 69 0 0.0 0.0 0.00 0.00 0.00 52 1008.4
20260505163309 66 0 0.0 0.0 0.00 0.00 0.00 54 1008.5
20260505162809 64 0 0.0 0.0 0.00 0.00 0.00 55 1008.7
20260505162309 64 0 0.0 0.0 0.00 0.00 0.00 53 1008.7
20260505161808 64 0 0.0 0.0 0.00 0.00 0.00 50 1008.8
20260505161308 65 0 0.0 0.0 0.00 0.00 0.00 49 1008.9
20260505160808 65 0 0.0 0.0 0.00 0.00 0.00 48 1008.8
20260505160307 66 0 0.0 0.0 0.00 0.00 0.00 46 1008.7
20260505153306 74 0 0.0 0.0 0.00 0.00 0.00 40 1008.5
20260505152805 76 0 0.0 0.0 0.00 0.00 0.00 40 1008.4
20260505152305 77 0 0.0 0.0 0.00 0.00 0.00 41 1008.4
20260505151805 75 0 0.0 0.0 0.00 0.00 0.00 42 1008.4
20260505151305 75 0 0.0 0.0 0.00 0.00 0.00 41 1008.4
20260505150804 77 0 0.0 0.0 0.00 0.00 0.00 40 1008.3
20260505150304 78 0 0.0 0.0 0.00 0.00 0.00 39 1008.3
20260505140301 77 0 0.0 0.0 0.00 0.00 0.00 42 1008.6
20260505130257 68 0 0.0 0.0 0.00 0.00 0.00 52 1008.7
20260505124756 67 0 0.0 0.0 0.00 0.00 0.00 53 1008.8
20260505124256 67 0 0.0 0.0 0.00 0.00 0.00 53 1008.9
20260505123756 67 0 0.0 0.0 0.00 0.00 0.00 53 1008.9
20260505123255 68 0 0.0 0.0 0.00 0.00 0.00 54 1009.0
20260505122755 68 0 0.0 0.0 0.00 0.00 0.00 55 1009.0
20260505122255 67 0 0.0 0.0 0.00 0.00 0.00 56 1008.7
20260505121755 67 0 0.0 0.0 0.00 0.00 0.00 56 1008.8
20260505121254 67 0 0.0 0.0 0.00 0.00 0.00 55 1008.8
20260505120754 67 0 0.0 0.0 0.00 0.00 0.00 54 1008.9
20260505120254 67 0 0.0 0.0 0.00 0.00 0.00 53 1009.0
20260505115754 67 0 0.0 0.0 0.00 0.00 0.00 52 1009.1
20260505115253 67 0 0.0 0.0 0.00 0.00 0.00 52 1009.0
20260505114753 67 0 0.0 0.0 0.00 0.00 0.00 51 1009.0
20260505114253 67 0 0.0 0.0 0.00 0.00 0.00 50 1009.1
20260505113752 68 0 0.0 0.0 0.00 0.00 0.00 49 1009.1
20260505113252 68 0 0.0 0.0 0.00 0.00 0.00 48 1008.9
20260505112752 69 0 0.0 0.0 0.00 0.00 0.00 47 1009.0
20260505112252 70 0 0.0 0.0 0.00 0.00 0.00 44 1009.0
20260505111751 71 0 0.0 0.0 0.00 0.00 0.00 42 1009.1
20260505111251 71 0 0.0 0.0 0.00 0.00 0.00 41 1009.1
20260505110751 73 0 0.0 0.0 0.00 0.00 0.00 39 1009.1
20260505110250 74 0 0.0 0.0 0.00 0.00 0.00 39 1009.1
20260505101748 76 0 0.0 0.0 0.00 0.00 0.00 41 1009.2
20260505101248 74 0 0.0 0.0 0.00 0.00 0.00 44 1009.3
20260505100747 72 0 0.0 0.0 0.00 0.00 0.00 46 1009.3
20260505100247 71 0 0.0 0.0 0.00 0.00 0.00 46 1009.3
20260505095747 69 0 0.0 0.0 0.00 0.00 0.00 47 1009.3
20260505095246 69 0 0.0 0.0 0.00 0.00 0.00 48 1009.4
20260505094746 68 0 0.0 0.0 0.00 0.00 0.00 49 1009.4
20260505094246 68 0 0.0 0.0 0.00 0.00 0.00 49 1009.4
20260505093746 67 0 0.0 0.0 0.00 0.00 0.00 51 1009.4
20260505093245 67 0 0.0 0.0 0.00 0.00 0.00 51 1009.4
20260505092745 67 0 0.0 0.0 0.00 0.00 0.00 52 1009.5
20260505092245 67 0 0.0 0.0 0.00 0.00 0.00 52 1009.5
20260505091744 67 0 0.0 0.0 0.00 0.00 0.00 52 1009.7
20260505091244 67 0 0.0 0.0 0.00 0.00 0.00 53 1009.7
20260505090744 67 0 0.0 0.0 0.00 0.00 0.00 55 1009.7
20260505090244 68 0 0.0 0.0 0.00 0.00 0.00 55 1009.7
20260505085743 68 0 0.0 0.0 0.00 0.00 0.00 56 1009.8
20260505085243 68 0 0.0 0.0 0.00 0.00 0.00 58 1009.8
20260505084743 68 0 0.0 0.0 0.00 0.00 0.00 60 1009.9
20260505084242 67 0 0.0 0.0 0.00 0.00 0.00 61 1009.7
20260505083742 66 0 0.0 0.0 0.00 0.00 0.00 62 1009.8
20260505083242 65 0 0.0 0.0 0.00 0.00 0.00 63 1009.9
20260505082742 65 0 0.0 0.0 0.00 0.00 0.00 63 1010.0
20260505082241 64 0 0.0 0.0 0.00 0.00 0.00 65 1010.0
20260505081741 64 0 0.0 0.0 0.00 0.00 0.00 66 1010.2
20260505081241 63 0 0.0 0.0 0.00 0.00 0.00 68 1010.1
20260505080740 63 0 0.0 0.0 0.00 0.00 0.00 69 1010.3
20260505080240 62 0 0.0 0.0 0.00 0.00 0.00 71 1010.2
20260505075740 62 0 0.0 0.0 0.00 0.00 0.00 71 1010.0
20260505075240 61 0 0.0 0.0 0.00 0.00 0.00 73 1010.2
20260505074739 60 0 0.0 0.0 0.00 0.00 0.00 75 1010.3
20260505074239 59 0 0.0 0.0 0.00 0.00 0.00 75 1010.2
20260505073739 58 0 0.0 0.0 0.00 0.00 0.00 76 1010.4
20260505073238 57 0 0.0 0.0 0.00 0.00 0.00 78 1010.3
20260505072738 57 0 0.0 0.0 0.00 0.00 0.00 79 1010.4
20260505072238 56 0 0.0 0.0 0.00 0.00 0.00 80 1010.3
20260505071738 55 0 0.0 0.0 0.00 0.00 0.00 81 1010.5
20260505071237 55 0 0.0 0.0 0.00 0.00 0.00 82 1010.5
20260505070737 54 0 0.0 0.0 0.00 0.00 0.00 82 1010.7
20260505070237 53 0 0.0 0.0 0.00 0.00 0.00 83 1010.5
20260505065737 52 0 0.0 0.0 0.00 0.00 0.00 83 1010.7
20260505065236 52 0 0.0 0.0 0.00 0.00 0.00 84 1010.7
20260505064736 51 0 0.0 0.0 0.00 0.00 0.00 84 1010.6
20260505064236 50 0 0.0 0.0 0.00 0.00 0.00 84 1010.8
20260505063735 50 0 0.0 0.0 0.00 0.00 0.00 84 1010.8
20260505063235 49 0 0.0 0.0 0.00 0.00 0.00 85 1010.8
20260505062735 49 0 0.0 0.0 0.00 0.00 0.00 85 1010.9
20260505062235 49 0 0.0 0.0 0.00 0.00 0.00 85 1010.9
20260505061734 48 0 0.0 0.0 0.00 0.00 0.00 85 1010.9
20260505061234 48 0 0.0 0.0 0.00 0.00 0.00 85 1011.0
20260505060734 48 0 0.0 0.0 0.00 0.00 0.00 86 1011.0
20260505060233 48 0 0.0 0.0 0.00 0.00 0.00 86 1011.1
20260505055733 48 0 0.0 0.0 0.00 0.00 0.00 87 1011.0
20260505055233 47 0 0.0 0.0 0.00 0.00 0.00 87 1010.9
20260505054733 47 0 0.0 0.0 0.00 0.00 0.00 88 1011.0
20260505054232 46 0 0.0 0.0 0.00 0.00 0.00 88 1010.8
20260505053732 46 0 0.0 0.0 0.00 0.00 0.00 88 1010.8
20260505053232 45 0 0.0 0.0 0.00 0.00 0.00 88 1010.9
20260505052731 44 0 0.0 0.0 0.00 0.00 0.00 88 1010.9
20260505052231 44 0 0.0 0.0 0.00 0.00 0.00 88 1010.9
20260505051731 43 0 0.0 0.0 0.00 0.00 0.00 88 1011.0
20260505051231 43 0 0.0 0.0 0.00 0.00 0.00 88 1010.9
20260505050730 42 0 0.0 0.0 0.00 0.00 0.00 88 1011.0
20260505050230 42 0 0.0 0.0 0.00 0.00 0.00 88 1011.0
20260505041727 40 0 0.0 0.0 0.00 0.00 0.00 88 1011.3
20260505041227 40 0 0.0 0.0 0.00 0.00 0.00 88 1011.3
20260505040727 41 0 0.0 0.0 0.00 0.00 0.00 88 1011.3
20260505040227 41 0 0.0 0.0 0.00 0.00 0.00 88 1011.3
20260505035726 41 0 0.0 0.0 0.00 0.00 0.00 88 1011.3
20260505035226 41 0 0.0 0.0 0.00 0.00 0.00 88 1011.3
20260505034726 41 0 0.0 0.0 0.00 0.00 0.00 88 1011.3
20260505034225 41 0 0.0 0.0 0.00 0.00 0.00 88 1011.2
20260505033725 41 0 0.0 0.0 0.00 0.00 0.00 88 1011.2
20260505033225 41 0 0.0 0.0 0.00 0.00 0.00 87 1011.0
20260505032725 41 0 0.0 0.0 0.00 0.00 0.00 87 1011.1
20260505032224 41 0 0.0 0.0 0.00 0.00 0.00 87 1011.1
20260505031724 41 0 0.0 0.0 0.00 0.00 0.00 87 1011.2
20260505031224 41 0 0.0 0.0 0.00 0.00 0.00 87 1011.2
20260505030723 41 0 0.0 0.0 0.00 0.00 0.00 87 1011.3
20260505030223 41 0 0.0 0.0 0.00 0.00 0.00 87 1011.5
20260505025723 41 0 0.0 0.0 0.00 0.00 0.00 87 1011.4
20260505025223 41 0 0.0 0.0 0.00 0.00 0.00 87 1011.6
20260505024722 41 0 0.0 0.0 0.00 0.00 0.00 87 1011.7
20260505024222 41 0 0.0 0.0 0.00 0.00 0.00 87 1011.7
20260505023722 42 0 0.0 0.0 0.00 0.00 0.00 87 1011.8
20260505023221 42 0 0.0 0.0 0.00 0.00 0.00 87 1011.8
20260505022721 42 0 0.0 0.0 0.00 0.00 0.00 87 1011.8
20260505022221 42 0 0.0 0.0 0.00 0.00 0.00 87 1011.9
20260505021721 42 0 0.0 0.0 0.00 0.00 0.00 87 1011.9
20260505021220 42 0 0.0 0.0 0.00 0.00 0.00 87 1012.0
20260505020720 42 0 0.0 0.0 0.00 0.00 0.00 87 1012.0
20260505020220 43 0 0.0 0.0 0.00 0.00 0.00 87 1012.1
20260505015719 43 0 0.0 0.0 0.00 0.00 0.00 87 1012.0
20260505015219 43 0 0.0 0.0 0.00 0.00 0.00 87 1012.1
20260505014719 43 0 0.0 0.0 0.00 0.00 0.00 87 1012.1
20260505014219 43 0 0.0 0.0 0.00 0.00 0.00 87 1012.0
20260505013718 43 0 0.0 0.0 0.00 0.00 0.00 87 1012.0
20260505013218 43 0 0.0 0.0 0.00 0.00 0.00 87 1012.0
20260505012718 43 0 0.0 0.0 0.00 0.00 0.00 87 1012.1
20260505012218 43 0 0.0 0.0 0.00 0.00 0.00 87 1012.0
20260505011717 43 0 0.0 0.0 0.00 0.00 0.00 87 1012.1
20260505011217 43 0 0.0 0.0 0.00 0.00 0.00 87 1012.1
20260505010717 43 0 0.0 0.0 0.00 0.00 0.00 87 1012.1
20260505010216 43 0 0.0 0.0 0.00 0.00 0.00 87 1012.2
20260505005716 43 0 0.0 0.0 0.00 0.00 0.00 87 1012.3
20260505005216 43 0 0.0 0.0 0.00 0.00 0.00 87 1012.2
20260505004716 43 0 0.0 0.0 0.00 0.00 0.00 87 1012.2
20260505004215 44 0 0.0 0.0 0.00 0.00 0.00 86 1012.2
20260505003715 44 0 0.0 0.0 0.00 0.00 0.00 86 1012.3
20260505003215 44 0 0.0 0.0 0.00 0.00 0.00 86 1012.4
20260505002714 44 0 0.0 0.0 0.00 0.00 0.00 86 1012.4
20260505002214 45 0 0.0 0.0 0.00 0.00 0.00 86 1012.4
20260505001714 45 0 0.0 0.0 0.00 0.00 0.00 86 1012.4
20260505001214 45 0 0.0 0.0 0.00 0.00 0.00 86 1012.5
20260505000713 45 0 0.0 0.0 0.00 0.00 0.00 86 1012.8
20260505000213 45 0 0.0 0.0 0.00 0.00 0.00 85 1012.8
20260504235713 45 0 0.0 0.0 0.00 0.00 0.00 85 1012.7
20260504235212 45 0 0.0 0.0 0.00 0.00 0.00 86 1012.7
20260504234712 46 0 0.0 0.0 0.00 0.00 0.00 86 1012.8
20260504234212 46 0 0.0 0.0 0.00 0.00 0.00 86 1012.9
20260504233712 46 0 0.0 0.0 0.00 0.00 0.00 86 1012.9
20260504233211 47 0 0.0 0.0 0.00 0.00 0.00 85 1013.0
20260504232711 47 0 0.0 0.0 0.00 0.00 0.00 85 1013.0
20260504232211 47 0 0.0 0.0 0.00 0.00 0.00 85 1013.1
20260504231710 47 0 0.0 0.0 0.00 0.00 0.00 85 1013.1
20260504231210 47 0 0.0 0.0 0.00 0.00 0.00 85 1013.1
20260504230710 48 0 0.0 0.0 0.00 0.00 0.00 85 1013.0
20260504230210 48 0 0.0 0.0 0.00 0.00 0.00 85 1013.1
20260504225709 48 0 0.0 0.0 0.00 0.00 0.00 85 1013.1
20260504225209 48 0 0.0 0.0 0.00 0.00 0.00 84 1013.1
20260504224709 48 0 0.0 0.0 0.00 0.00 0.00 84 1013.2
20260504224208 48 0 0.0 0.0 0.00 0.00 0.00 84 1013.2
20260504223708 48 0 0.0 0.0 0.00 0.00 0.00 84 1013.2
20260504223208 49 0 0.0 0.0 0.00 0.00 0.00 84 1013.3
20260504222708 49 0 0.0 0.0 0.00 0.00 0.00 84 1013.2
20260504222207 49 0 0.0 0.0 0.00 0.00 0.00 84 1013.3
20260504221707 49 0 0.0 0.0 0.00 0.00 0.00 83 1013.3
20260504221207 49 0 0.0 0.0 0.00 0.00 0.00 83 1013.4
20260504220706 50 0 0.0 0.0 0.00 0.00 0.00 83 1013.4
20260504220206 50 0 0.0 0.0 0.00 0.00 0.00 82 1013.5
20260504215706 50 0 0.0 0.0 0.00 0.00 0.00 82 1013.6
20260504215206 50 0 0.0 0.0 0.00 0.00 0.00 82 1013.5
20260504214705 51 0 0.0 0.0 0.00 0.00 0.00 82 1013.6
20260504214205 51 0 0.0 0.0 0.00 0.00 0.00 82 1013.6
20260504213705 51 0 0.0 0.0 0.00 0.00 0.00 82 1013.5
20260504213204 51 0 0.0 0.0 0.00 0.00 0.00 82 1013.5
20260504212704 51 0 0.0 0.0 0.00 0.00 0.00 82 1013.4
20260504212204 51 0 0.0 0.0 0.00 0.00 0.00 81 1013.4
20260504211704 51 0 0.0 0.0 0.00 0.00 0.00 81 1013.5
20260504211203 51 0 0.0 0.0 0.00 0.00 0.00 81 1013.6
20260504210703 51 0 0.0 0.0 0.00 0.00 0.00 81 1013.7
20260504210203 51 0 0.0 0.0 0.00 0.00 0.00 81 1013.8
20260504205703 52 0 0.0 0.0 0.00 0.00 0.00 81 1013.7
20260504205202 52 0 0.0 0.0 0.00 0.00 0.00 81 1013.7
20260504204702 52 0 0.0 0.0 0.00 0.00 0.00 80 1013.6
20260504204202 53 0 0.0 0.0 0.00 0.00 0.00 80 1013.6
20260504203701 53 0 0.0 0.0 0.00 0.00 0.00 80 1013.6
20260504203201 53 0 0.0 0.0 0.00 0.00 0.00 79 1013.6
20260504202701 53 0 0.0 0.0 0.00 0.00 0.00 79 1013.4
20260504202201 54 0 0.0 0.0 0.00 0.00 0.00 79 1013.6
20260504201700 54 0 0.0 0.0 0.00 0.00 0.00 79 1013.7
20260504201200 54 0 0.0 0.0 0.00 0.00 0.00 79 1013.7
20260504200700 55 0 0.0 0.0 0.00 0.00 0.00 79 1013.8
20260504200159 55 0 0.0 0.0 0.00 0.00 0.00 78 1013.7
20260504195659 55 0 0.0 0.0 0.00 0.00 0.00 77 1013.8
20260504195159 55 0 0.0 0.0 0.00 0.00 0.00 78 1013.9
20260504194659 56 0 0.0 0.0 0.00 0.00 0.00 78 1014.0
20260504194158 56 0 0.0 0.0 0.00 0.00 0.00 77 1014.0
20260504193658 56 0 0.0 0.0 0.00 0.00 0.00 77 1013.9
20260504193158 56 0 0.0 0.0 0.00 0.00 0.00 76 1014.0
20260504192657 57 0 0.0 0.0 0.00 0.00 0.00 76 1014.0
20260504192157 57 0 0.0 0.0 0.00 0.00 0.00 76 1014.0
20260504191657 57 0 0.0 0.0 0.00 0.00 0.00 76 1013.8
20260504191157 57 0 0.0 0.0 0.00 0.00 0.00 77 1013.9
20260504190656 57 0 0.0 0.0 0.00 0.00 0.00 76 1013.9
20260504190156 57 0 0.0 0.0 0.00 0.00 0.00 76 1013.8
20260504185656 57 0 0.0 0.0 0.00 0.00 0.00 75 1013.8
20260504185155 57 0 0.0 0.0 0.00 0.00 0.00 74 1013.9
20260504184655 57 0 0.0 0.0 0.00 0.00 0.00 72 1014.1